* Astronomy

Members Login
Post Info TOPIC: Asteroid 2010 OD101


L

Posts: 131433
Date:
Asteroid 2010 OD101
Permalink  
 


Orbital elements:
2010 OD101 Earth MOID = 0.1906 AU
Epoch 2010 July 23.0 TT = JDT 2455400.5 MPC
M 10.96322 (2000.0) P Q
n 0.47772307 Peri. 102.71963 +0.30416076 +0.95231760
a 1.6206351 Node 185.17924 -0.94420436 +0.29803192
e 0.3587097 Incl. 15.43776 -0.12635013 +0.06533114
P 2.06 H 20.7 G 0.15 U 8

MPEC 2010 - P10


__________________
Page 1 of 1  sorted by
 
Quick Reply

Please log in to post quick replies.



Create your own FREE Forum
Report Abuse
Powered by ActiveBoard